Regional Weather Roundup
Issued by NWS

Home | Current Version | Previous Version | Graphics & Text | Print | Product List | Glossary On
Versions: 1 2 3 4 5 6 7 8 9 10 11 12 13 14 15 16 17 18 19 20 21 22 23 24 25 26 27 28 29 30 31 32 33 34 35 36 37 38 39 40 41 42 43 44 45 46 47 48 49 50
000
ASUS43 KOAX 311202
RWRNE

WEATHER ROUNDUP FOR NEBRASKA
NATIONAL WEATHER SERVICE OMAHA NE
700 AM CDT FRI JUL 31 2015

NOTES: SATELLITE DATA IS BEING USED TO AUGMENT CLOUD COVER ABOVE
       12000 FEET.
       "FAIR" INDICATES FEW OR NO CLOUDS BELOW 12,000 FEET WITH NO
       SIGNIFICANT WEATHER AND/OR OBSTRUCTIONS TO VISIBILITY.

  * THESE STATIONS DO NOT REPORT WEATHER SUCH AS RAIN...SNOW OR FOG.

NEZ001>004-019>022-054>056-311300-
NEBRASKA PANHANDLE

CITY           SKY/WX    TMP DP  RH WIND       PRES   REMARKS
SCOTTSBLUFF    CLEAR     59  57  93 S3        30.26S
6HR MIN TEMP:  59; 6HR MAX TEMP:  65;

ALLIANCE       CLEAR     53  51  93 W3        30.26R
6HR MIN TEMP:  52; 6HR MAX TEMP:  62;

CHADRON        CLEAR     52  48  86 CALM      30.23R
6HR MIN TEMP:  51; 6HR MAX TEMP:  63;

KIMBALL        CLEAR     54  53  96 W5        30.30R
SIDNEY         CLEAR     55  54  96 S10       30.30R
6HR MIN TEMP:  54; 6HR MAX TEMP:  59;

$$

NEZ057>060-069>072-079>082-311300-
SOUTHWEST NEBRASKA

CITY           SKY/WX    TMP DP  RH WIND       PRES   REMARKS
NORTH PLATTE   CLEAR     61  59  93 NE3       30.22R
6HR MIN TEMP:  60; 6HR MAX TEMP:  65;

IMPERIAL       CLEAR     58  56  93 SW3       30.25R
6HR MIN TEMP:  58; 6HR MAX TEMP:  69;

MCCOOK         CLEAR     64  62  93 CALM      30.22R
6HR MIN TEMP:  63; 6HR MAX TEMP:  72;

$$

NEZ005>010-023>029-035>040-094-311300-
NORTH CENTRAL NEBRASKA

CITY           SKY/WX    TMP DP  RH WIND       PRES   REMARKS
VALENTINE      CLEAR     57  52  83 SW5       30.19S
6HR MIN TEMP:  56; 6HR MAX TEMP:  64;

AINSWORTH      CLEAR     63  58  83 SW5       30.19R
BROKEN BOW     CLEAR     61  59  93 CALM      30.19R
6HR MIN TEMP:  61; 6HR MAX TEMP:  67;

O`NEILL        CLEAR     64  63  96 N3        30.17R
ORD            CLEAR     61  60  97 SW6       30.17R
6HR MIN TEMP:  61; 6HR MAX TEMP:  68;

$$

NEZ041-046>049-061>064-073>077-083>087-311300-
SOUTH CENTRAL NEBRASKA

CITY           SKY/WX    TMP DP  RH WIND       PRES   REMARKS
GRAND ISLAND   CLEAR     69  66  90 SW7       30.18R
6HR MIN TEMP:  69; 6HR MAX TEMP:  71;

AURORA         CLEAR     67  67 100 SW3       30.18R
HASTINGS       CLEAR     68  66  93 SW5       30.20R
6HR MIN TEMP:  68; 6HR MAX TEMP:  73;

KEARNEY *      PTCLDY    70  64  83 SW8       30.20R
$$

NEZ011>018-030>034-042>045-311300-
NORTHEAST NEBRASKA

CITY           SKY/WX    TMP DP  RH WIND       PRES   REMARKS
NORFOLK        CLEAR     66  63  90 CALM      30.14S
6HR MIN TEMP:  65; 6HR MAX TEMP:  72;

ALBION         CLEAR     63  60  92 CALM      30.17R FOG
BLAIR          MOCLDY    67  63  85 S5        30.14S
COLUMBUS *     CLEAR     64  61  88 SE3       30.17R
FREMONT        PTCLDY    71  60  66 S7        30.15S
TEKAMAH        CLEAR     66  63  90 SE6       30.13R
6HR MIN TEMP:  66; 6HR MAX TEMP:  73; 6HR PCP:  0.03;

$$

NEZ050>053-065>068-078-088>093-311300-
SOUTHEAST NEBRASKA

CITY           SKY/WX    TMP DP  RH WIND       PRES   REMARKS
LINCOLN        CLEAR     68  64  87 S3        30.18S
6HR MIN TEMP:  68; 6HR MAX TEMP:  73;

OMAHA EPPLEY   PTCLDY    72  64  76 SW5       30.13S
6HR MIN TEMP:  69; 6HR MAX TEMP:  75; 6HR PCP:  0.07;

BEATRICE       CLEAR     65  63  91 NE7       30.19R
FALLS CITY     CLEAR     64  62  93 VRB5      30.18R
6HR MIN TEMP:  63; 6HR MAX TEMP:  71;

NEBRASKA CITY  PTCLDY    66  62  86 W9        30.16F
$$

NEZ044-045-051>053-067-311300-
OMAHA AREA

CITY           SKY/WX    TMP DP  RH WIND       PRES   REMARKS
OMAHA EPPLEY   PTCLDY    72  64  76 SW5       30.13S
6HR MIN TEMP:  69; 6HR MAX TEMP:  75; 6HR PCP:  0.07;

BLAIR          MOCLDY    67  63  85 S5        30.14S
FREMONT        PTCLDY    71  60  66 S7        30.15S
WAHOO          FAIR      67  64  90 S8        30.16R
$$



USA.gov is the U.S. government's official web portal to all federal, state and local government web resources and services.